OE3AJC-13 Weather Reports


time (UTC)temp
C
wind
direction
speed
KPH
gust
KPH
rain 1hr
cm
rain 24hr
cm
rain mn
cm
humidity
%
barometer
mb
20260507052310 12 112 4.8 12.9 0.00 0.00 0.00 69 1010.6
20260507051309 12 231 0.0 1.6 0.00 0.00 0.00 70 1010.5
20260507050309 11 246 3.2 4.8 0.00 0.00 0.00 71 1010.6
20260507045308 11 236 3.2 4.8 0.00 0.00 0.00 72 1010.5
20260507044307 11 243 1.6 3.2 0.00 0.00 0.00 73 1010.2
20260507043306 11 208 0.0 3.2 0.00 0.00 0.00 73 1010.3
20260507042307 11 230 0.0 0.0 0.00 0.00 0.00 73 1010.0
20260507041305 11 218 3.2 4.8 0.00 0.00 0.00 74 1009.8
20260507040304 11 215 0.0 4.8 0.00 0.00 0.00 74 1009.6
20260507035306 11 163 3.2 4.8 0.00 0.00 0.00 74 1009.6
20260507034303 11 233 1.6 3.2 0.00 0.00 0.00 74 1009.5
20260507033302 11 234 0.0 0.0 0.00 0.00 0.00 74 1009.5
20260507032305 11 141 3.2 4.8 0.00 0.00 0.00 73 1009.5
20260507031301 11 195 3.2 4.8 0.00 0.00 0.00 74 1009.5
20260507030300 11 219 0.0 1.6 0.00 0.00 0.00 74 1009.4
20260507025259 11 185 1.6 3.2 0.00 0.00 0.00 74 1009.2
20260507024258 11 241 0.0 1.6 0.00 0.00 0.00 75 1009.1
20260507023258 11 231 0.0 0.0 0.00 0.00 0.00 75 1009.2
20260507022257 11 227 0.0 0.0 0.00 0.00 0.00 75 1009.0
20260507021256 11 231 1.6 3.2 0.00 0.00 0.00 75 1009.0
20260507020256 11 224 0.0 0.0 0.00 0.00 0.00 75 1009.2
20260507015255 11 237 3.2 4.8 0.00 0.00 0.00 75 1008.8
20260507014254 11 234 0.0 1.6 0.00 0.00 0.00 76 1008.7
20260507013254 12 232 0.0 1.6 0.00 0.00 0.00 75 1008.7
20260507012253 12 240 4.8 8.0 0.00 0.00 0.00 75 1008.7
20260507010251 12 232 3.2 3.2 0.00 0.00 0.00 76 1008.7
20260507005250 12 248 3.2 6.4 0.00 0.00 0.00 76 1008.7
20260507004250 12 228 0.0 0.0 0.00 0.00 0.00 76 1008.3
20260507003249 12 236 1.6 4.8 0.00 0.00 0.00 76 1008.4
20260507002248 12 237 0.0 1.6 0.00 0.00 0.00 75 1008.4
20260507001247 12 226 0.0 0.0 0.00 0.00 0.00 75 1008.2
20260507000247 12 263 1.6 4.8 0.00 0.00 0.00 75 1008.2
20260506235246 12 238 3.2 4.8 0.00 0.00 0.00 74 1008.0
20260506234245 12 258 3.2 6.4 0.00 0.00 0.00 75 1008.0
20260506233245 12 231 0.0 0.0 0.00 0.00 0.00 74 1007.9
20260506232244 13 235 0.0 0.0 0.00 0.00 0.00 74 1007.9
20260506231243 13 231 0.0 0.0 0.00 0.00 0.00 73 1008.0
20260506225241 13 220 0.0 3.2 0.00 0.00 0.00 73 1007.5
20260506224241 13 258 11.3 16.1 0.00 0.00 0.00 73 1007.6
20260506223240 13 247 6.4 8.0 0.00 0.00 0.00 74 1007.5
20260506222239 13 232 4.8 4.8 0.00 0.00 0.00 74 1007.4
20260506221239 13 253 4.8 6.4 0.00 0.00 0.00 75 1007.2
20260506220238 13 243 3.2 4.8 0.00 0.00 0.00 74 1006.4
20260506215237 13 244 1.6 3.2 0.00 0.00 0.00 73 1006.7
20260506214237 13 223 3.2 4.8 0.00 0.00 0.00 72 1006.2
20260506213236 14 232 0.0 0.0 0.00 0.00 0.00 71 1005.9
20260506212235 14 248 4.8 6.4 0.00 0.00 0.00 71 1006.0
20260506211234 15 229 1.6 3.2 0.00 0.00 0.00 70 1005.8
20260506210231 15 253 8.0 9.7 0.00 0.00 0.00 70 1005.7
20260506205230 15 241 9.7 9.7 0.00 0.00 0.00 69 1005.7
20260506204229 15 251 4.8 6.4 0.00 0.00 0.00 68 1005.8
20260506203228 15 270 14.5 19.3 0.00 0.00 0.00 68 1005.5
20260506202228 15 259 11.3 16.1 0.00 0.00 0.00 68 1005.4
20260506201227 15 246 12.9 22.5 0.00 0.00 0.00 67 1005.4
20260506200226 16 250 16.1 20.9 0.00 0.00 0.00 64 1005.6
20260506195226 16 265 9.7 17.7 0.00 0.00 0.00 56 1005.2
20260506194225 16 224 3.2 3.2 0.00 0.00 0.00 52 1004.5
20260506193224 17 190 3.2 4.8 0.00 0.00 0.00 50 1004.1
20260506192223 17 207 1.6 1.6 0.00 0.00 0.00 49 1004.1
20260506191223 17 207 0.0 1.6 0.00 0.00 0.00 49 1004.0
20260506190222 17 225 0.0 0.0 0.00 0.00 0.00 51 1003.7
20260506185221 20 231 0.0 0.0 0.00 0.00 0.00 44 1003.4
20260506184221 20 173 3.2 4.8 0.00 0.00 0.00 40 1003.3
20260506183220 20 182 3.2 6.4 0.00 0.00 0.00 40 1002.8
20260506182219 20 214 1.6 3.2 0.00 0.00 0.00 41 1002.6
20260506181215 20 160 1.6 3.2 0.00 0.00 0.00 41 1002.5
20260506180215 20 193 3.2 4.8 0.00 0.00 0.00 41 1003.0
20260506175214 21 194 1.6 3.2 0.00 0.00 0.00 42 1002.7
20260506174213 21 192 3.2 4.8 0.00 0.00 0.00 41 1002.6
20260506173212 21 182 4.8 6.4 0.00 0.00 0.00 40 1002.6
20260506172212 22 188 3.2 4.8 0.00 0.00 0.00 40 1002.5
20260506171211 23 139 6.4 9.7 0.00 0.00 0.00 36 1002.5
20260506170210 23 191 4.8 6.4 0.00 0.00 0.00 37 1002.7
20260506165210 23 156 1.6 6.4 0.00 0.00 0.00 37 1002.5
20260506164209 23 204 3.2 3.2 0.00 0.00 0.00 38 1002.7
20260506163208 23 120 8.0 14.5 0.00 0.00 0.00 38 1003.0
20260506161207 23 179 1.6 3.2 0.00 0.00 0.00 37 1003.2
20260506160206 23 218 3.2 4.8 0.00 0.00 0.00 37 1003.1
20260506155205 23 158 3.2 4.8 0.00 0.00 0.00 39 1003.4
20260506154205 23 207 1.6 1.6 0.00 0.00 0.00 39 1003.6
20260506153204 23 138 3.2 8.0 0.00 0.00 0.00 38 1003.7
20260506152203 23 120 4.8 4.8 0.00 0.00 0.00 40 1003.9
20260506151202 23 170 3.2 4.8 0.00 0.00 0.00 40 1004.0
20260506150202 22 206 6.4 6.4 0.00 0.00 0.00 41 1003.9
20260506143159 22 188 3.2 4.8 0.00 0.00 0.00 47 1004.6
20260506142159 22 171 1.6 3.2 0.00 0.00 0.00 42 1004.4
20260506141158 22 150 4.8 8.0 0.00 0.00 0.00 42 1004.3
20260506135156 23 167 6.4 6.4 0.00 0.00 0.00 40 1004.8
20260506134156 22 199 4.8 6.4 0.00 0.00 0.00 43 1004.7
20260506132154 22 170 6.4 6.4 0.00 0.00 0.00 41 1004.8
20260506125152 22 135 3.2 4.8 0.00 0.00 0.00 41 1005.4
20260506123151 23 108 11.3 19.3 0.00 0.00 0.00 41 1005.7
20260506121149 22 137 9.7 9.7 0.00 0.00 0.00 42 1005.9
20260506120148 22 117 9.7 16.1 0.00 0.00 0.00 43 1005.8
20260506114147 21 154 9.7 9.7 0.00 0.00 0.00 43 1006.1
20260506113146 21 154 9.7 9.7 0.00 0.00 0.00 43 1006.1
20260506110144 22 142 6.4 6.4 0.00 0.00 0.00 41 1006.6
20260506105135 21 135 6.4 8.0 0.00 0.00 0.00 44 1006.5
20260506104134 21 220 6.4 9.7 0.00 0.00 0.00 44 1006.7
20260506103134 21 231 0.0 1.6 0.00 0.00 0.00 44 1006.8
20260506102133 21 232 0.0 0.0 0.00 0.00 0.00 43 1006.9
20260506101132 20 226 0.0 0.0 0.00 0.00 0.00 44 1006.9
20260506100131 21 202 3.2 4.8 0.00 0.00 0.00 43 1007.0
20260506095131 22 169 3.2 4.8 0.00 0.00 0.00 41 1007.2
20260506094130 21 192 1.6 3.2 0.00 0.00 0.00 44 1007.5
20260506093129 21 241 0.0 3.2 0.00 0.00 0.00 47 1007.0
20260506092128 21 307 3.2 4.8 0.00 0.00 0.00 47 1007.6
20260506091128 21 219 3.2 4.8 0.00 0.00 0.00 48 1007.5
20260506090127 20 114 3.2 4.8 0.00 0.00 0.00 50 1007.4
20260506085126 20 133 1.6 3.2 0.00 0.00 0.00 50 1007.6
20260506084125 21 185 4.8 6.4 0.00 0.00 0.00 49 1007.8
20260506083125 20 243 1.6 3.2 0.00 0.00 0.00 50 1007.8
20260506081123 19 217 0.0 0.0 0.00 0.00 0.00 52 1007.7
20260506080122 18 179 3.2 4.8 0.00 0.00 0.00 54 1007.7
20260506073117 17 225 1.6 3.2 0.00 0.00 0.00 59 1008.0
20260506072117 17 147 3.2 3.2 0.00 0.00 0.00 59 1008.2
20260506071116 17 188 1.6 3.2 0.00 0.00 0.00 60 1008.0
20260506070115 17 171 4.8 6.4 0.00 0.00 0.00 59 1008.2
20260506062112 17 187 3.2 6.4 0.00 0.00 0.00 64 1008.1
20260506061112 16 216 3.2 6.4 0.00 0.00 0.00 65 1008.1
20260506060111 16 210 3.2 4.8 0.00 0.00 0.00 66 1007.9